Weather in Vorotynsk

Russia / Oryol Oblast     52°30′23″N   37°38′06″E
temp.,
°C
wind,
m/s
gust,
m/s
humid.,
%
clouds,
%
prec.,
mm/h
press.,
hPa
HPBL,
m
7 march, sun
sun700:00−12w448922 0.0 102074
03:00−13wsw479111 0.0 1019120
06:00−12sw5129519 0.0 1016216
09:00−8sw8168549 0.0 1013595
12:00−4sw101879100 0.0 1009980
15:00−2wsw111887100 0.1 10051276
18:00−2wsw111987100 0.2 10011168
21:00−1wsw111992100 0.4 10011162
8 march, mon
mon800:00−5w5147996 1.1 1003492
03:00−7wsw498598 1.1 1003194
06:00−7wsw4118764 0.0 1003228
09:00−5w5119280 0.0 1003492
12:00−4w7118113 0.0 10041184
15:00−4wnw6108350 0.1 10051044
18:00−7w468877 0.1 1007102
21:00−7nw359568 0.2 1009137
9 march, tue
tue900:00−12wnw47925 0.0 1011110
03:00−13wnw469613 0.0 1013108
06:00−13nw339670 0.0 101448
09:00−12nw349584 0.0 1016180
12:00−10nnw358896 0.0 1017460
15:00−9nw458697 0.0 1018649
18:00−13nw3493100 0.0 101940
21:00−15nw349371 0.0 102232
10 march, wed
wed1000:00−17nw34946 0.0 102339
03:00−18nw33963 0.0 102425
06:00−19nw23960 0.0 102520
09:00−17nw229414 0.0 102685
12:00−13wnw228655 0.0 1026309
15:00−11wsw128578 0.0 1026397
18:00−13ssw229299 0.0 102520
21:00−14s229395 0.0 102620
11 march, thu
thu1100:00−14sse349491 0.0 102681
03:00−13sse479595 0.4 1026203
06:00−12s4895100 0.9 1025286
09:00−10ssw4893100 1.3 1025307
12:00−7ssw5889100 0.0 1024404
15:00−4ssw5108784 0.0 1023573
18:00−5ssw4108893 0.0 1022272
21:00−7s4118497 0.0 1021217